Weather History for Brunswick, GA

Change the Weather History Date:

Friday, February 1, 2013

  Actual Average Record
Temperature  
Mean Temperature 52 °F -  
Max Temperature 64 °F 65 °F 82 °F (1975)
Min Temperature 41 °F 41 °F 25 °F (1936)
Degree Days  
Heating Degree Days 12    
Growing Degree Days 2 (Base 50)    
Moisture  
Dew Point 31 °F    
Average Humidity 47    
Maximum Humidity 76    
Minimum Humidity 28    
Precipitation  
Precipitation 0.00 in - - ()
Sea Level Pressure  
Sea Level Pressure 30.29 in    
Wind  
Wind Speed 6 mph (WNW)    
Max Wind Speed 14 mph    
Max Gust Speed 21 mph    
Visibility 10 miles    
Events      
Averages and records for this station are not official NWS values.
T = Trace of Precipitation, MM = Missing Value Source: NWS Daily Summary

Daily Weather History Graph

Daily Weather History Graph

Search for Another Location

Airport:

Trip Planner

Search our weather history database for the weather conditions in past years. The results will help you decide how hot, cold, wet, or windy it might be!

Date:

Astronomy

Feb. 01, 2013 Rise Set
Actual Time 7:18 AM EST 6:01 PM EST
Civil Twilight 6:52 AM EST 6:26 PM EST
Nautical Twilight 6:23 AM EST 6:55 PM EST
Astronomical Twilight 5:55 AM EST 7:24 PM EST
Moon 11:38 PM EST (2/1) 10:16 AM EST (2/1)
Length of Visible Light 11h 34m
Length of Day
10h 43m
Waning Gibbous, 70% of the Moon is Illuminated
Feb 1
Waning Gibbous
Feb 3
Last Quarter
Feb 10
New
Feb 17
First Quarter
Feb 25
Full

Hourly Weather History & Observations

Time (EST) Temp. Windchill Dew Point Humidity Pressure Visibility Wind Dir Wind Speed Gust Speed Precip Events Conditions
12:15 AM 44.6 °F 42.2 °F 32.0 °F 61% 30.25 in 10.0 mi WSW 4.6 mph - N/A   Clear
12:35 AM 44.6 °F 43.1 °F 33.8 °F 66% 30.24 in 10.0 mi West 3.5 mph - N/A   Clear
12:55 AM 42.8 °F 41.1 °F 33.8 °F 70% 30.25 in 10.0 mi WSW 3.5 mph - N/A   Clear
1:15 AM 42.8 °F 40.1 °F 33.8 °F 70% 30.24 in 10.0 mi WSW 4.6 mph - N/A   Clear
1:35 AM 42.8 °F 40.1 °F 32.0 °F 66% 30.25 in 10.0 mi West 4.6 mph - N/A   Clear
1:55 AM 44.6 °F 42.2 °F 32.0 °F 61% 30.26 in 10.0 mi West 4.6 mph - N/A   Clear
2:15 AM 44.6 °F 41.4 °F 32.0 °F 61% 30.26 in 10.0 mi West 5.8 mph - N/A   Clear
2:35 AM 42.8 °F 39.3 °F 32.0 °F 66% 30.26 in 10.0 mi West 5.8 mph - N/A   Clear
2:55 AM 42.8 °F 40.1 °F 32.0 °F 66% 30.26 in 10.0 mi West 4.6 mph - N/A   Clear
3:15 AM 42.8 °F 40.1 °F 32.0 °F 66% 30.26 in 10.0 mi West 4.6 mph - N/A   Clear
3:35 AM 42.8 °F 40.1 °F 32.0 °F 66% 30.26 in 10.0 mi West 4.6 mph - N/A   Clear
3:55 AM 42.8 °F 40.1 °F 32.0 °F 66% 30.26 in 10.0 mi West 4.6 mph - N/A   Clear
4:15 AM 41.0 °F 38.0 °F 32.0 °F 70% 30.26 in 10.0 mi West 4.6 mph - N/A   Clear
4:35 AM 41.0 °F 38.0 °F 32.0 °F 70% 30.27 in 10.0 mi WSW 4.6 mph - N/A   Clear
4:55 AM 41.0 °F 38.0 °F 32.0 °F 70% 30.26 in 10.0 mi West 4.6 mph - N/A   Clear
5:15 AM 41.0 °F 38.0 °F 32.0 °F 70% 30.26 in 10.0 mi West 4.6 mph - N/A   Clear
5:35 AM 41.0 °F 37.1 °F 32.0 °F 70% 30.26 in 10.0 mi WSW 5.8 mph - N/A   Clear
5:55 AM 41.0 °F 37.1 °F 32.0 °F 70% 30.27 in 10.0 mi WSW 5.8 mph - N/A   Clear
6:15 AM 41.0 °F 38.0 °F 33.8 °F 76% 30.27 in 10.0 mi WSW 4.6 mph - N/A   Clear
6:35 AM 41.0 °F 38.0 °F 33.8 °F 76% 30.27 in 10.0 mi WSW 4.6 mph - N/A   Clear
6:55 AM 41.0 °F 38.0 °F 33.8 °F 76% 30.28 in 10.0 mi WSW 4.6 mph - N/A   Clear
7:15 AM 41.0 °F 37.1 °F 32.0 °F 70% 30.28 in 10.0 mi WSW 5.8 mph - N/A   Clear
7:35 AM 42.8 °F 39.3 °F 33.8 °F 70% 30.29 in 10.0 mi WSW 5.8 mph - N/A   Clear
7:55 AM 44.6 °F 40.7 °F 33.8 °F 66% 30.28 in 10.0 mi WSW 6.9 mph - N/A   Clear
8:15 AM 46.4 °F 42.4 °F 33.8 °F 62% 30.29 in 10.0 mi West 8.1 mph - N/A   Clear
8:35 AM 48.2 °F - 33.8 °F 58% 30.29 in 10.0 mi West 9.2 mph - N/A   Clear
8:55 AM 48.2 °F - 33.8 °F 58% 30.29 in 10.0 mi WSW 9.2 mph - N/A   Clear
9:15 AM 50.0 °F - 33.8 °F 54% 30.30 in 10.0 mi WSW 10.4 mph - N/A   Clear
9:35 AM 51.8 °F - 35.6 °F 54% 30.30 in 10.0 mi West 10.4 mph - N/A   Clear
9:55 AM 51.8 °F - 33.8 °F 50% 30.31 in 10.0 mi West 10.4 mph - N/A   Clear
10:15 AM 55.4 °F - 33.8 °F 44% 30.30 in 10.0 mi WNW 11.5 mph 16.1 mph N/A   Clear
10:35 AM 57.2 °F - 33.8 °F 41% 30.30 in 10.0 mi West 10.4 mph 19.6 mph N/A   Clear
10:55 AM 59.0 °F - 33.8 °F 39% 30.29 in 10.0 mi West 11.5 mph 17.3 mph N/A   Clear
11:15 AM 60.8 °F - 33.8 °F 36% 30.29 in 10.0 mi West 12.7 mph 18.4 mph N/A   Clear
11:35 AM 62.6 °F - 33.8 °F 34% 30.29 in 10.0 mi West 11.5 mph 17.3 mph N/A   Clear
11:55 AM 62.6 °F - 33.8 °F 34% 30.28 in 10.0 mi West 11.5 mph 18.4 mph N/A   Clear
12:15 PM 64.4 °F - 33.8 °F 32% 30.28 in 10.0 mi West 13.8 mph 20.7 mph N/A   Clear
12:35 PM 64.4 °F - 33.8 °F 32% 30.27 in 10.0 mi WNW 12.7 mph 20.7 mph N/A   Clear
12:55 PM 64.4 °F - 33.8 °F 32% 30.27 in 10.0 mi WNW 13.8 mph 19.6 mph N/A   Clear
1:15 PM 64.4 °F - 35.6 °F 34% 30.27 in 10.0 mi West 11.5 mph 16.1 mph N/A   Clear
1:35 PM 64.4 °F - 35.6 °F 34% 30.26 in 10.0 mi WNW 13.8 mph 20.7 mph N/A   Clear
1:55 PM 64.4 °F - 35.6 °F 34% 30.26 in 10.0 mi WNW 12.7 mph 20.7 mph N/A   Clear
2:15 PM 64.4 °F - 35.6 °F 34% 30.24 in 10.0 mi WNW 9.2 mph - N/A   Clear
2:35 PM 64.4 °F - 35.6 °F 34% 30.24 in 10.0 mi NW 11.5 mph 19.6 mph N/A   Clear
2:55 PM 64.4 °F - 33.8 °F 32% 30.25 in 10.0 mi West 12.7 mph 16.1 mph N/A   Clear
3:15 PM 64.4 °F - 33.8 °F 32% 30.25 in 10.0 mi WNW 10.4 mph 17.3 mph N/A   Clear
3:35 PM 64.4 °F - 32.0 °F 30% 30.25 in 10.0 mi West 10.4 mph 16.1 mph N/A   Clear
3:55 PM 64.4 °F - 32.0 °F 30% 30.26 in 10.0 mi West 11.5 mph 18.4 mph N/A   Clear
4:15 PM 64.4 °F - 32.0 °F 30% 30.25 in 10.0 mi West 10.4 mph 16.1 mph N/A   Clear
4:35 PM 64.4 °F - 32.0 °F 30% 30.26 in 10.0 mi West 6.9 mph 17.3 mph N/A   Clear
4:55 PM 62.6 °F - 30.2 °F 30% 30.26 in 10.0 mi West 9.2 mph 16.1 mph N/A   Clear
5:15 PM 62.6 °F - 32.0 °F 32% 30.26 in 10.0 mi WNW 4.6 mph - N/A   Clear
5:35 PM 60.8 °F - 30.2 °F 31% 30.27 in 10.0 mi West 5.8 mph - N/A   Clear
5:55 PM 59.0 °F - 30.2 °F 34% 30.27 in 10.0 mi WNW 3.5 mph - N/A   Clear
6:15 PM 57.2 °F - 30.2 °F 36% 30.29 in 10.0 mi Calm Calm - N/A   Clear
6:35 PM 55.4 °F - 28.4 °F 36% 30.29 in 10.0 mi WNW 3.5 mph - N/A   Clear
6:55 PM 53.6 °F - 30.2 °F 41% 30.30 in 10.0 mi WNW 3.5 mph - N/A   Clear
7:15 PM 51.8 °F - 28.4 °F 41% 30.31 in 10.0 mi Calm Calm - N/A   Clear
7:35 PM 50.0 °F - 32.0 °F 50% 30.31 in 10.0 mi WNW 3.5 mph - N/A   Clear
7:55 PM 50.0 °F - 30.2 °F 47% 30.32 in 10.0 mi North 5.8 mph - N/A   Clear
8:15 PM 51.8 °F - 24.8 °F 35% 30.32 in 10.0 mi North 3.5 mph - N/A   Clear
8:35 PM 51.8 °F - 23.0 °F 33% 30.33 in 10.0 mi North 3.5 mph - N/A   Clear
8:55 PM 50.0 °F - 21.2 °F 32% 30.34 in 10.0 mi North 4.6 mph - N/A   Clear
9:15 PM 50.0 °F - 19.4 °F 30% 30.35 in 10.0 mi NNW 4.6 mph - N/A   Clear
9:35 PM 50.0 °F - 17.6 °F 28% 30.35 in 10.0 mi North 3.5 mph - N/A   Clear
9:55 PM 48.2 °F - 17.6 °F 30% 30.35 in 10.0 mi North 3.5 mph - N/A   Clear
10:15 PM 48.2 °F - 17.6 °F 30% 30.36 in 10.0 mi Calm Calm - N/A   Clear
10:35 PM 46.4 °F 43.5 °F 17.6 °F 32% 30.36 in 10.0 mi North 5.8 mph - N/A   Clear
10:55 PM 46.4 °F 44.3 °F 17.6 °F 32% 30.36 in 10.0 mi North 4.6 mph - N/A   Clear
11:15 PM 46.4 °F 44.3 °F 17.6 °F 32% 30.37 in 10.0 mi North 4.6 mph - N/A   Clear
11:35 PM 46.4 °F 44.3 °F 17.6 °F 32% 30.37 in 10.0 mi North 4.6 mph - N/A   Clear
11:55 PM 44.6 °F 41.4 °F 17.6 °F 34% 30.36 in 10.0 mi North 5.8 mph - N/A   Clear